DW7955 Weather Reports


time (UTC)temp
C
wind
direction
speed
KPH
gust
KPH
rain 1hr
cm
rain 24hr
cm
rain mn
cm
humidity
%
barometer
mb
20260503013032 18 64 4.8 12.9 0.00 0.00 0.00 18 1013.1
20260503011528 18 57 3.2 16.1 0.00 0.00 0.00 18 1013.0
20260503010031 19 76 8.0 20.9 0.00 0.00 0.00 16 1013.0
20260503004526 20 97 9.7 22.5 0.00 0.00 0.00 16 1013.2
20260503003025 20 121 11.3 20.9 0.00 0.00 0.00 16 1013.2
20260503001523 20 117 8.0 24.1 0.00 0.00 0.00 16 1013.3
20260503000021 20 64 11.3 17.7 0.00 0.00 0.00 16 1013.6
20260502234527 20 99 4.8 17.7 0.00 0.00 0.00 16 1013.7
20260502233019 20 117 8.0 12.9 0.00 0.00 0.00 16 1013.8
20260502231518 20 275 0.0 17.7 0.00 0.00 0.00 17 1013.9
20260502230022 20 138 3.2 12.9 0.00 0.00 0.00 17 1014.1
20260502224515 20 1 6.4 11.3 0.00 0.00 0.00 18 1014.2
20260502223014 20 77 4.8 14.5 0.00 0.00 0.00 18 1014.4
20260502221512 20 105 9.7 16.1 0.00 0.00 0.00 17 1014.6
20260502220009 20 252 0.0 11.3 0.00 0.00 0.00 19 1015.0
20260502214506 20 180 8.0 14.5 0.00 0.00 0.00 18 1015.3
20260502213004 20 208 8.0 16.1 0.00 0.00 0.00 20 1015.5
20260502211505 20 163 4.8 11.3 0.00 0.00 0.00 20 1015.7
20260502210115 19 21 4.8 14.5 0.00 0.00 0.00 20 1016.0
20260502204558 19 25 4.8 19.3 0.00 0.00 0.00 19 1016.4
20260502203053 19 244 4.8 12.9 0.00 0.00 0.00 19 1016.6
20260502201553 18 74 8.0 17.7 0.00 0.00 0.00 21 1016.9
20260502200050 18 200 4.8 14.5 0.00 0.00 0.00 20 1017.2
20260502194545 17 109 4.8 16.1 0.00 0.00 0.00 20 1017.4
20260502193043 18 180 6.4 14.5 0.00 0.00 0.00 20 1017.5
20260502191551 17 190 9.7 16.1 0.00 0.00 0.00 20 1017.8
20260502190041 17 206 6.4 16.1 0.00 0.00 0.00 20 1017.9
20260502184547 17 168 11.3 22.5 0.00 0.00 0.00 20 1018.2
20260502183054 17 139 11.3 17.7 0.00 0.00 0.00 21 1018.5
20260502181540 17 112 8.0 14.5 0.00 0.00 0.00 21 1018.7
20260502163016 15 330 8.0 14.5 0.00 0.00 0.00 24 1019.6
20260502161511 15 215 6.4 12.9 0.00 0.00 0.00 31 1019.6
20260502151605 12 253 4.8 14.5 0.00 0.00 0.00 44 1020.1
20260502123025 3 297 3.2 9.7 0.00 0.00 0.00 73 1020.6
20260502121517 3 325 1.6 6.4 0.00 0.00 0.00 74 1020.6
20260502114516 3 294 0.0 0.0 0.00 0.00 0.00 75 1020.5
20260502113015 3 294 0.0 0.0 0.00 0.00 0.00 75 1020.3
20260502111518 3 294 0.0 6.4 0.00 0.00 0.00 74 1020.4
20260502110014 3 294 1.6 6.4 0.00 0.00 0.00 74 1020.3
20260502104511 3 302 3.2 8.0 0.00 0.00 0.00 74 1020.3
20260502103009 3 333 1.6 8.0 0.00 0.00 0.00 76 1020.3
20260502101507 3 296 1.6 8.0 0.00 0.00 0.00 75 1020.1
20260502090113 5 302 0.0 4.8 0.00 0.00 0.00 75 1019.8
20260502070042 5 305 0.0 3.2 0.00 0.00 0.00 75 1019.7
20260502064540 6 305 0.0 3.2 0.00 0.00 0.00 73 1019.7
20260502063038 6 305 1.6 9.7 0.00 0.00 0.00 73 1019.7
20260502061534 6 265 0.0 1.6 0.00 0.00 0.00 72 1019.7
20260502060032 6 265 0.0 8.0 0.00 0.03 0.00 71 1019.7
20260502054532 7 297 0.0 6.4 0.00 0.03 0.00 70 1019.6
20260502053031 6 266 0.0 0.0 0.00 0.03 0.00 70 1019.4
20260502051535 7 266 0.0 1.6 0.00 0.03 0.00 69 1019.3
20260502050037 7 182 0.0 1.6 0.00 0.10 0.00 71 1019.3
20260502044531 7 182 0.0 0.0 0.00 0.10 0.00 70 1019.3
20260502043030 7 182 0.0 0.0 0.00 0.10 0.00 70 1019.2
20260502041542 7 182 0.0 0.0 0.00 0.10 0.00 67 1019.3
20260502040029 8 182 0.0 0.0 0.00 0.13 0.00 66 1019.3
20260502034529 8 182 0.0 3.2 0.00 0.13 0.00 64 1019.2
20260502033030 8 142 1.6 4.8 0.00 0.13 0.00 63 1019.1
20260502031528 9 142 0.0 0.0 0.00 0.13 0.00 60 1018.9
20260502030027 9 142 0.0 0.0 0.00 0.15 0.00 56 1018.7
20260502024527 10 142 0.0 0.0 0.00 0.15 0.00 56 1018.5
20260502023027 11 142 0.0 1.6 0.00 0.15 0.00 51 1018.3
20260502021527 11 142 0.0 4.8 0.00 0.15 0.00 47 1018.1
20260502020025 12 142 0.0 1.6 0.00 0.25 0.00 44 1018.0
20260502014528 12 142 1.6 4.8 0.00 0.25 0.00 41 1017.9